Location: Milton
(43.5183°N, 79.8775°W)
Time: 18:17:51
(UTC+00:00)

KAITUO 1B - Visible Passes

Search period start: 28 March 2023 00:00
Search period end: 07 April 2023 00:00
Orbit: 446 x 460 km, 97.4° (Epoch: 28 March)

Date Brightness Start Highest point End Pass type
(mag) Time Alt. Az. Time Alt. Az. Time Alt. Az.
29 Mar ? 00:17:53 10° SW 00:20:06 16° W 00:22:21 10° NW visible
01 Apr ? 00:07:43 10° SSW 00:10:24 22° W 00:13:05 10° NW visible
03 Apr ? 00:33:33 10° WSW 00:34:36 11° W 00:35:39 10° WNW visible
06 Apr ? 00:21:22 10° SW 00:23:27 15° W 00:25:32 10° NW visible
